TimeCDT,TemperatureF,Dew PointF,Humidity,Sea Level PressureIn,VisibilityMPH,Wind Direction,Wind SpeedMPH,Gust SpeedMPH,PrecipitationIn,Events,Conditions,WindDirDegrees,DateUTC
12:15 AM,49.3,41.4,74,30.24,10.0,NW,6.9,-,N/A,,Clear,320,2013-05-11 05:15:00
12:35 AM,49.5,39.9,70,30.24,10.0,NW,5.8,-,N/A,,Clear,310,2013-05-11 05:35:00
12:55 AM,48.4,41.0,76,30.24,10.0,NW,3.5,-,N/A,,Clear,320,2013-05-11 05:55:00
1:15 AM,48.6,41.2,76,30.24,10.0,WNW,4.6,-,N/A,,Clear,290,2013-05-11 06:15:00
1:35 AM,48.0,41.7,79,30.24,10.0,West,4.6,-,N/A,,Clear,280,2013-05-11 06:35:00
1:55 AM,47.3,42.3,83,30.24,10.0,WNW,8.1,-,N/A,,Clear,290,2013-05-11 06:55:00
2:15 AM,46.9,42.4,84,30.24,10.0,WNW,6.9,-,N/A,,Clear,290,2013-05-11 07:15:00
2:35 AM,46.6,42.3,85,30.24,10.0,WNW,8.1,-,N/A,,Clear,300,2013-05-11 07:35:00
2:55 AM,46.4,41.9,84,30.24,10.0,WNW,8.1,-,N/A,,Clear,300,2013-05-11 07:55:00
3:15 AM,46.4,41.9,84,30.24,10.0,NW,8.1,-,N/A,,Scattered Clouds,310,2013-05-11 08:15:00
3:35 AM,45.9,41.5,85,30.24,10.0,WNW,6.9,-,N/A,,Clear,300,2013-05-11 08:35:00
3:55 AM,46.2,41.4,83,30.24,10.0,WNW,5.8,-,N/A,,Clear,290,2013-05-11 08:55:00
4:15 AM,45.5,41.4,85,30.24,10.0,WNW,8.1,-,N/A,,Clear,300,2013-05-11 09:15:00
4:35 AM,45.0,41.0,86,30.24,10.0,NW,8.1,-,N/A,,Clear,320,2013-05-11 09:35:00
4:55 AM,43.5,39.9,87,30.24,10.0,NW,8.1,-,N/A,,Clear,310,2013-05-11 09:55:00
5:15 AM,43.5,39.7,87,30.24,10.0,NW,8.1,-,N/A,,Clear,310,2013-05-11 10:15:00
5:35 AM,43.9,39.6,85,30.25,10.0,NW,8.1,-,N/A,,Clear,310,2013-05-11 10:35:00
5:55 AM,43.7,39.4,85,30.25,10.0,NW,8.1,-,N/A,,Clear,310,2013-05-11 10:55:00
6:15 AM,43.3,39.4,86,30.25,10.0,NW,9.2,-,N/A,,Clear,310,2013-05-11 11:15:00
6:35 AM,43.7,39.4,85,30.25,10.0,NW,9.2,-,N/A,,Clear,310,2013-05-11 11:35:00
6:55 AM,43.3,39.2,85,30.26,10.0,NW,6.9,-,N/A,,Clear,310,2013-05-11 11:55:00
7:15 AM,44.2,39.4,83,30.26,10.0,NW,8.1,-,N/A,,Clear,310,2013-05-11 12:15:00
7:35 AM,45.7,40.3,81,30.27,10.0,NW,6.9,-,N/A,,Clear,310,2013-05-11 12:35:00
7:55 AM,47.8,42.1,80,30.27,10.0,NW,6.9,-,N/A,,Clear,310,2013-05-11 12:55:00
8:15 AM,51.1,43.5,75,30.27,10.0,NW,9.2,-,N/A,,Clear,320,2013-05-11 13:15:00
8:35 AM,54.0,44.2,70,30.29,10.0,NNW,8.1,-,N/A,,Clear,330,2013-05-11 13:35:00
8:55 AM,57.6,44.8,62,30.29,10.0,NNW,9.2,-,N/A,,Clear,340,2013-05-11 13:55:00
9:15 AM,59.5,44.2,57,30.29,10.0,NNW,10.4,-,N/A,,Clear,340,2013-05-11 14:15:00
9:35 AM,62.4,42.4,48,30.29,10.0,North,17.3,-,N/A,,Clear,360,2013-05-11 14:35:00
9:55 AM,63.3,41.7,45,30.30,10.0,North,16.1,21.9,N/A,,Clear,350,2013-05-11 14:55:00
10:15 AM,63.7,40.5,43,30.30,10.0,North,13.8,18.4,N/A,,Clear,360,2013-05-11 15:15:00
10:35 AM,64.0,41.5,44,30.30,10.0,NNE,12.7,-,N/A,,Clear,20,2013-05-11 15:35:00
10:55 AM,65.7,42.3,43,30.31,10.0,NNE,11.5,18.4,N/A,,Clear,20,2013-05-11 15:55:00
11:15 AM,66.2,41.7,41,30.31,10.0,NNE,12.7,19.6,N/A,,Clear,30,2013-05-11 16:15:00
11:35 AM,66.9,41.5,40,30.31,10.0,NE,12.7,18.4,N/A,,Clear,40,2013-05-11 16:35:00
11:55 AM,68.4,41.4,37,30.31,10.0,NNE,12.7,19.6,N/A,,Clear,30,2013-05-11 16:55:00
12:15 PM,70.0,40.5,34,30.31,10.0,NNE,11.5,20.7,N/A,,Clear,30,2013-05-11 17:15:00
12:35 PM,69.6,38.5,32,30.31,10.0,ENE,12.7,21.9,N/A,,Clear,60,2013-05-11 17:35:00
12:55 PM,69.4,39.6,34,30.31,10.0,NE,11.5,19.6,N/A,,Clear,40,2013-05-11 17:55:00
1:15 PM,69.8,39.0,33,30.31,10.0,NNE,15.0,20.7,N/A,,Clear,20,2013-05-11 18:15:00
1:35 PM,70.5,38.5,31,30.31,10.0,NNE,10.4,24.2,N/A,,Clear,30,2013-05-11 18:35:00
1:55 PM,69.6,38.5,32,30.30,10.0,ENE,13.8,19.6,N/A,,Scattered Clouds,60,2013-05-11 18:55:00
2:15 PM,70.9,39.7,32,30.31,10.0,NNE,13.8,23.0,N/A,,Clear,20,2013-05-11 19:15:00
2:35 PM,71.8,38.7,30,30.30,10.0,NNE,20.7,25.3,N/A,,Clear,20,2013-05-11 19:35:00
2:55 PM,71.8,38.5,30,30.30,10.0,NNE,16.1,23.0,N/A,,Clear,30,2013-05-11 19:55:00
3:15 PM,72.0,36.7,28,30.30,10.0,ENE,12.7,21.9,N/A,,Clear,60,2013-05-11 20:15:00
3:35 PM,72.1,38.3,29,30.29,10.0,NNE,15.0,20.7,N/A,,Clear,30,2013-05-11 20:35:00
4:15 PM,70.5,36.9,29,30.29,10.0,North,16.1,23.0,N/A,,Scattered Clouds,10,2013-05-11 21:15:00
4:35 PM,68.5,37.4,32,30.28,10.0,North,8.1,-,N/A,,Scattered Clouds,10,2013-05-11 21:35:00
4:55 PM,71.4,38.3,30,30.28,10.0,NNE,11.5,17.3,N/A,,Clear,20,2013-05-11 21:55:00
5:15 PM,71.2,36.9,28,30.28,10.0,ENE,10.4,19.6,N/A,,Clear,70,2013-05-11 22:15:00
5:35 PM,71.1,38.5,31,30.28,10.0,ENE,15.0,18.4,N/A,,Clear,60,2013-05-11 22:35:00
5:55 PM,71.1,38.3,30,30.28,10.0,ENE,13.8,23.0,N/A,,Clear,60,2013-05-11 22:55:00
6:15 PM,70.9,37.4,29,30.28,10.0,NE,12.7,16.1,N/A,,Clear,50,2013-05-11 23:15:00
6:35 PM,69.8,37.2,30,30.28,10.0,NE,11.5,16.1,N/A,,Clear,50,2013-05-11 23:35:00
6:55 PM,69.3,38.1,32,30.27,10.0,ENE,9.2,-,N/A,,Clear,60,2013-05-11 23:55:00
7:15 PM,68.5,38.1,33,30.27,10.0,ENE,11.5,-,N/A,,Clear,60,2013-05-12 00:15:00
7:35 PM,68.0,38.1,33,30.27,10.0,ENE,13.8,17.3,N/A,,Clear,60,2013-05-12 00:35:00
7:55 PM,66.4,38.5,36,30.28,10.0,ENE,9.2,-,N/A,,Clear,60,2013-05-12 00:55:00
8:15 PM,64.8,39.0,39,30.28,10.0,ENE,9.2,-,N/A,,Clear,70,2013-05-12 01:15:00
8:35 PM,62.8,39.0,42,30.28,10.0,East,10.4,-,N/A,,Clear,80,2013-05-12 01:35:00
9:15 PM,58.8,39.4,49,30.29,10.0,East,8.1,-,N/A,,Clear,100,2013-05-12 02:15:00
9:35 PM,58.3,39.2,49,30.29,10.0,East,8.1,-,N/A,,Clear,100,2013-05-12 02:35:00
9:55 PM,57.2,39.4,51,30.30,10.0,ESE,6.9,-,N/A,,Clear,110,2013-05-12 02:55:00
10:15 PM,55.6,39.6,55,30.30,10.0,ESE,6.9,-,N/A,,Clear,110,2013-05-12 03:15:00
10:35 PM,54.1,39.6,58,30.31,10.0,ESE,8.1,-,N/A,,Clear,110,2013-05-12 03:35:00
10:55 PM,53.6,39.9,60,30.31,10.0,ESE,6.9,-,N/A,,Clear,110,2013-05-12 03:55:00
11:15 PM,53.2,39.6,60,30.31,10.0,ESE,8.1,-,N/A,,Clear,120,2013-05-12 04:15:00
11:35 PM,51.8,39.9,64,30.31,10.0,ESE,8.1,-,N/A,,Clear,120,2013-05-12 04:35:00
11:55 PM,50.7,40.1,67,30.32,10.0,SE,6.9,-,N/A,,Clear,130,2013-05-12 04:55:00